CW5324 Weather Reports


time (UTC)temp
C
wind
direction
speed
KPH
gust
KPH
rain 1hr
cm
rain 24hr
cm
rain mn
cm
humidity
%
barometer
mb
20260510193522 24 0.0 0.0 0.00 0.23 0.00 56
20260510192517 23 0.0 0.0 0.00 0.25 0.00 60
20260510191538 22 0.0 0.0 0.00 0.25 0.00 60
20260510190522 22 0.0 0.0 0.00 0.25 0.00 59
20260510185522 22 0.0 0.0 0.00 0.25 0.00 57
20260510184522 23 0.0 0.0 0.00 0.25 0.00 56
20260510183521 23 0.0 0.0 0.00 0.28 0.00 55
20260510182522 23 0.0 0.0 0.00 0.28 0.00 56
20260510181517 23 0.0 0.0 0.00 0.28 0.00 58
20260510180522 22 0.0 0.0 0.00 0.28 0.00 61
20260510175522 22 0.0 0.0 0.00 0.28 0.00 57
20260510174522 22 0.0 0.0 0.00 0.30 0.00 57
20260510173523 23 0.0 0.0 0.00 0.30 0.00 56
20260510172523 22 0.0 0.0 0.00 0.33 0.00 59
20260510171522 22 0.0 0.0 0.00 0.36 0.00 57
20260510170537 22 0.0 0.0 0.00 0.36 0.00 57
20260510165522 22 0.0 0.0 0.00 0.38 0.00 58
20260510164522 22 0.0 0.0 0.00 0.38 0.00 61
20260510163523 22 0.0 0.0 0.00 0.41 0.00 60
20260510162522 21 0.0 0.0 0.00 0.41 0.00 62
20260510161522 21 0.0 0.0 0.00 0.43 0.00 64
20260510160516 20 0.0 0.0 0.00 0.43 0.00 66
20260510155542 20 0.0 0.0 0.00 0.43 0.00 68
20260510154522 19 0.0 0.0 0.00 0.46 0.00 69
20260510153602 18 0.0 0.0 0.00 0.46 0.00 71
20260510152522 18 0.0 0.0 0.00 0.48 0.00 74
20260510151522 17 0.0 0.0 0.00 0.48 0.00 75
20260510150517 17 0.0 0.0 0.00 0.48 0.00 76
20260510145516 17 0.0 0.0 0.00 0.48 0.00 77
20260510144522 16 0.0 0.0 0.00 0.51 0.00 78
20260510143522 16 0.0 0.0 0.00 0.51 0.00 79
20260510142522 16 0.0 0.0 0.00 0.51 0.00 80
20260510141522 16 0.0 0.0 0.00 0.53 0.00 82
20260510140603 15 0.0 0.0 0.00 0.53 0.00 86
20260510135516 15 0.0 0.0 0.00 0.53 0.00 89
20260510134517 14 0.0 0.0 0.00 0.56 0.00 91
20260510133521 14 0.0 0.0 0.00 0.56 0.00 92
20260510132522 14 0.0 0.0 0.00 0.56 0.00 93
20260510131542 13 0.0 0.0 0.00 0.56 0.00 95
20260510130522 13 0.0 0.0 0.00 0.58 0.00 95
20260510125522 13 0.0 0.0 0.00 0.58 0.00 96
20260510124516 13 0.0 0.0 0.00 0.58 0.00 97
20260510123522 13 0.0 0.0 0.00 0.58 0.00 97
20260510122522 13 0.0 0.0 0.00 0.58 0.00 98
20260510121542 13 0.0 0.0 0.00 0.58 0.00 99
20260510120522 13 0.0 0.0 0.00 0.58 0.00 99
20260510115520 13 0.0 0.0 0.00 0.58 0.00 99
20260510114522 13 0.0 0.0 0.00 0.61 0.00 99
20260510113557 12 0.0 0.0 0.00 0.61 0.00 100
20260510112522 12 0.0 0.0 0.00 0.61 0.00 100
20260510111522 12 0.0 0.0 0.00 0.64 0.00 100
20260510110523 12 0.0 0.0 0.00 0.64 0.00 100
20260510105522 12 0.0 0.0 0.00 0.66 0.00 100
20260510104522 12 0.0 0.0 0.00 0.69 0.00 100
20260510103522 12 0.0 0.0 0.00 0.69 0.00 100
20260510102516 12 0.0 0.0 0.00 0.71 0.00 100
20260510101522 12 0.0 0.0 0.00 0.74 0.00 100
20260510100522 12 0.0 0.0 0.00 0.79 0.00 100
20260510095522 12 0.0 0.0 0.00 0.79 0.00 100
20260510094542 12 0.0 0.0 0.00 0.81 0.00 100
20260510093522 12 0.0 0.0 0.00 0.84 0.00 100
20260510092517 12 0.0 0.0 0.00 0.86 0.00 100
20260510091516 12 0.0 0.0 0.00 0.86 0.00 100
20260510090522 12 0.0 0.0 0.00 0.86 0.00 100
20260510085522 12 0.0 0.0 0.00 0.86 0.00 100
20260510084542 12 0.0 0.0 0.00 0.86 0.00 100
20260510083522 12 0.0 0.0 0.00 0.86 0.00 100
20260510082522 12 0.0 0.0 0.00 0.86 0.00 100
20260510081517 12 0.0 0.0 0.00 0.86 0.00 100
20260510080516 12 0.0 0.0 0.00 0.86 0.00 100
20260510075521 12 0.0 0.0 0.00 0.86 0.00 100
20260510074542 12 0.0 0.0 0.00 0.86 0.00 100
20260510073542 12 0.0 0.0 0.00 0.86 0.00 100
20260510072521 12 0.0 0.0 0.00 0.86 0.00 100
20260510071522 12 0.0 0.0 0.00 0.86 0.00 100
20260510070516 12 0.0 0.0 0.00 0.86 0.00 100
20260510065516 12 0.0 0.0 0.00 0.86 0.00 100
20260510064522 11 0.0 0.0 0.00 0.86 0.00 100
20260510063521 11 0.0 0.0 0.00 0.86 0.00 100
20260510062521 11 0.0 0.0 0.00 0.86 0.00 100
20260510061522 11 0.0 0.0 0.00 0.86 0.00 100
20260510060522 11 0.0 0.0 0.00 0.86 0.00 100
20260510055516 11 0.0 0.0 0.00 0.86 0.00 100
20260510054521 12 0.0 0.0 0.00 0.86 0.00 100
20260510053522 12 0.0 0.0 0.00 0.86 0.00 100
20260510052522 12 0.0 0.0 0.00 0.86 0.00 100
20260510051541 11 0.0 0.0 0.00 0.86 0.00 100
20260510050520 11 0.0 0.0 0.00 0.86 0.00 100
20260510045522 12 0.0 0.0 0.00 0.86 0.00 100
20260510044516 12 0.0 0.0 0.00 0.86 0.00 100
20260510043521 12 0.0 0.0 0.00 0.86 0.00 100
20260510042522 12 0.0 0.0 0.00 0.86 0.00 100
20260510041541 11 0.0 0.0 0.00 0.86 0.00 100
20260510040542 11 0.0 0.0 0.00 0.86 0.00 100
20260510035516 11 0.0 0.0 0.00 0.86 0.86 100
20260510034536 11 0.0 0.0 0.00 0.86 0.86 100
20260510033521 11 0.0 0.0 0.00 0.86 0.86 100
20260510032521 11 0.0 0.0 0.00 0.86 0.86 99
20260510031521 11 0.0 0.0 0.00 0.86 0.86 99
20260510030521 11 0.0 0.0 0.00 0.86 0.86 100
20260510025521 11 0.0 0.0 0.00 0.86 0.86 99
20260510024516 11 0.0 0.0 0.00 0.86 0.86 99
20260510023516 11 0.0 0.0 0.00 0.86 0.86 99
20260510022521 11 0.0 0.0 0.00 0.86 0.86 99
20260510021521 11 0.0 0.0 0.00 0.86 0.86 99
20260510020521 11 0.0 0.0 0.00 0.86 0.86 99
20260510015521 11 0.0 0.0 0.00 0.86 0.86 99
20260510014522 11 0.0 0.0 0.00 0.86 0.86 99
20260510013516 11 0.0 0.0 0.00 0.86 0.86 99
20260510012522 11 0.0 0.0 0.00 0.86 0.86 99
20260510011521 11 0.0 0.0 0.00 0.86 0.86 99
20260510010541 11 0.0 0.0 0.00 0.86 0.86 99
20260510005522 11 0.0 0.0 0.00 0.86 0.86 99
20260510004519 11 0.0 0.0 0.00 0.86 0.86 99
20260510003541 11 0.0 0.0 0.00 0.86 0.86 99
20260510002516 11 0.0 0.0 0.00 0.86 0.86 99
20260510001521 11 0.0 0.0 0.00 0.86 0.86 99
20260510000601 11 0.0 0.0 0.00 0.86 0.86 99
20260509235541 11 0.0 0.0 0.00 0.86 0.86 99
20260509234521 11 0.0 0.0 0.00 0.86 0.86 99
20260509233521 11 0.0 0.0 0.00 0.86 0.86 98
20260509232541 11 0.0 0.0 0.00 0.86 0.86 98
20260509231516 10 0.0 0.0 0.00 0.86 0.86 98
20260509230521 11 0.0 0.0 0.00 0.86 0.86 98
20260509225521 10 0.0 0.0 0.00 0.86 0.86 98
20260509224541 10 0.0 0.0 0.00 0.86 0.86 98
20260509223522 10 0.0 0.0 0.00 0.86 0.86 98
20260509222521 10 0.0 0.0 0.03 0.86 0.86 98
20260509221521 10 0.0 0.0 0.03 0.86 0.86 98
20260509220515 10 0.0 0.0 0.05 0.86 0.86 98
20260509215521 10 0.0 0.0 0.08 0.86 0.86 98
20260509214521 10 0.0 0.0 0.10 0.86 0.86 98
20260509213542 10 0.0 0.0 0.10 0.86 0.86 97
20260509212521 10 0.0 0.0 0.10 0.84 0.84 97
20260509211521 10 0.0 0.0 0.13 0.84 0.81 97
20260509210516 10 0.0 0.0 0.13 0.81 0.81 97
20260509205515 10 0.0 0.0 0.13 0.79 0.79 97
20260509204521 10 0.0 0.0 0.13 0.76 0.76 97
20260509203541 10 0.0 0.0 0.13 0.76 0.76 97
20260509202521 10 0.0 0.0 0.13 0.74 0.74 97
20260509201542 10 0.0 0.0 0.10 0.71 0.71 97
20260509200521 10 0.0 0.0 0.08 0.69 0.69 97
20260509195516 10 0.0 0.0 0.05 0.66 0.66 97
20260509194516 10 0.0 0.0 0.03 0.64 0.64 97